www.pogodaiklimat.ru

Погода и климат >> Архив погоды >> Индия >> Уттар-Прадеш >> Ферсатгиндж


ПОГОДА в Ферсатгиндже

  • Прогноз погоды в Ферсатгиндже
  • Монитор погоды в Ферсатгиндже

АРХИВ ПОГОДЫ в Ферсатгиндже

Время (UTC), дата Ветер
(напр.,м/с)
 
Видим.   Явления Облачность Т
(С)
Тd
(С)
f
(%)
Тe
(С)
Тes
(С)
Комфортность P
(гПа)
Po
(гПа)
Тmin
(С)
Tmax
(С)
R
(мм)
R24
(мм)
S
(см)
03 17.07 штиль 0 2000 м дымка ясно +30.8 +26.0 76 +46 +59 опасность
перегрева
1001.9 988.9 +26.6 +34.4
06 17.07 ЮВ 1 4000 м мгла 4/4 600 м
[Cu Sc]
+33.8 +26.0 64 +50 +65 опасность
перегрева
1001.2 988.4
09 17.07 З 2 4000 м мгла 4/4 600 м
[Cu Sc]
+35.8 +24.8 53 +49 +59 опасность
перегрева
999.5 986.8
12 17.07 СЗ 1 4000 м мгла ясно +35.2 +25.4 57 +50 +52 опасность
перегрева
997.8 985.1 +36.1
03 18.07 нст 1 4000 м мгла 3/0
[Ac trans]
+31.0 +25.4 72 +45 +54 опасность
перегрева
1001.2 988.2 +27.6 +36.1
06 18.07 ЮЗ 2 4000 м мгла 1/1 750 м
[Cu hum]
+34.4 +25.8 61 +50 +71 опасность
перегрева
1000.9 988.1
09 18.07 З 1 4000 м мгла 5/5 600 м
[Cu Sc]
+36.0 +24.7 52 +49 +58 опасность
перегрева
999.0 986.3
12 18.07 СЗ 2 4000 м мгла 6/0
[Ac trans Ci fib]
+35.4 +25.6 57 +50 +52 опасность
перегрева
997.1 984.4 +36.4
03 19.07 нст 1 4000 м мгла ясно +33.0 +26.9 70 +51 +62 опасность
перегрева
1000.9 988.0 +27.8 +36.4
06 19.07 нст 1 4000 м мгла 5/4 900 м
[Cu hum Ac trans]
+36.0 +26.6 59 +53 +67 опасность
перегрева
1001.2 988.4
09 19.07 В 3 4000 м мгла 6/4 900 м
[Cu hum Ac trans]
+35.0 +25.2 57 +49 +56 опасность
перегрева
999.3 986.5
12 19.07 В 2 4000 м мгла 6/1 900 м
[Cu hum Ac trans]
+33.0 +26.0 67 +49 +50 опасность
перегрева
998.4 985.6 +36.8
03 20.07 В 2 4000 м мгла ясно +32.6 +27.1 73 +51 +61 опасность
перегрева
1002.1 989.2 +27.6 +36.8
06 20.07 В 2 4000 м мгла 5/4 900 м
[Cu hum Ac trans]
+35.6 +26.8 61 +53 +65 опасность
перегрева
1001.7 988.9
09 20.07 ЮВ 2 4000 м мгла 5/4 900 м
[Cu hum Ac trans]
+36.8 +26.6 56 +54 +62 опасность
перегрева
999.5 986.8
12 20.07 нст 1 4000 м мгла 4/1 900 м
[Cu hum Ac trans]
+32.6 +27.1 73 +51 +52 опасность
перегрева
998.2 985.3 +36.8
03 21.07 В 2 2000 м дымка {гроза} 10/5 600 м
[Cb calv As op]
+29.8 +27.9 90 +49 +50 опасность
перегрева
1002.6 989.6 +26.6 +36.8 4
06 21.07 ЮЗ 2 2000 м мгла {гроза} 5/4 900 м
[Cu hum Ac trans]
+34.6 +27.8 68 +55 +66 опасность
перегрева
1001.5 988.7
09 21.07 нст 1 2000 м гроза без осадков 8/5 600 м
[Cb calv As op]
+29.2 +27.5 91 +47 +52 опасность
перегрева
999.7 986.7 4
12 21.07 нст 1 2000 м дымка {гроза} 6/3 900 м
[Cu hum Ac trans]
+28.8 +27.1 91 +46 +47 опасность
перегрева
998.6 985.6 +35.0 4
03 22.07 штиль 0 4000 м дымка 8/4 540 м
[Sc Ac trans]
+30.8 +26.0 76 +46 +51 опасность
перегрева
1001.6 988.6 +26.2 +35.0 4
06 22.07 З 3 4000 м мгла 1/0
[Ac trans]
+34.2 +26.8 65 +51 +68 опасность
перегрева
1001.1 988.3
09 22.07 СЗ 2 4000 м 4/4 600 м
[Sc]
+36.8 +26.3 55 +53 +63 опасность
перегрева
998.4 985.7
12 22.07 нст 1 4000 м мгла 9/4 600 м
[Sc Ac trans]
+32.8 +26.4 69 +49 +50 опасность
перегрева
997.6 984.8 +36.8
03 23.07 З 3 2000 м дымка 4/3 540 м
[Sc Ac trans]
+31.4 +26.7 76 +48 +54 опасность
перегрева
1000.0 987.1 +27.8 +36.8
06 23.07 З 2 4000 м мгла 4/1 600 м
[Sc Ac trans Ci fib]
+35.2 +25.7 58 +50 +68 опасность
перегрева
999.2 986.4
09 23.07 СЗ 3 4000 м мгла 6/4 600 м
[Sc Ac trans]
+37.0 +27.1 57 +55 +61 опасность
перегрева
997.4 984.7
12 23.07 штиль 0 4000 м мгла 10/3 600 м
[Sc Ac As]
+34.6 +28.4 70 +56 +57 опасность
перегрева
996.1 983.4 +37.0

 

Местоположение метеостанции Ферсатгиндж (Уттар-Прадеш, Индия): широта 26.25 долгота 81.37 высота над уровнем моря 116 м.

В архиве по умолчанию представлена погода в Ферсатгиндже за последнюю неделю. Архивные данные за месяц целиком и за предыдущие месяцы, начиная с января 2011 года, Вы можете получить, выбрав интересующий диапазон дат из раскрывающегося списка и нажав кнопку "Ввод!".


*Определитесь, кто Вы:
робот инопланетянин человек

Внимание! Время в таблицах - всемирное. Для получения местного времени необходимо прибавить поправку, которая равна 5.5 ч.

Смотрите также архив погоды в соседних городах и на ближайших метеорологических станциях:

Погода в Султанпуре (Уттар-Прадеш, Индия) (70 км)
Погода в Лакхнау (Уттар-Прадеш, Индия) (74 км)
Погода в Аллахабаде (Уттар-Прадеш, Индия) (96 км)
Погода в Хамирпуре (Уттар-Прадеш, Индия) (126 км)
Погода в Банде (Уттар-Прадеш, Индия) (132 км)
Погода в Бахрайче (Уттар-Прадеш, Индия) (149 км)
Погода в Варанаси аэропорту (Уттар-Прадеш, Индия) (174 км)
Погода в Реве (Мадхья-Прадеш, Индия) (191 км)
Погода в Сатне (Мадхья-Прадеш, Индия) (195 км)
Погода в Варанаси (Уттар-Прадеш, Индия) (196 км)

Пояснения к столбцам:

Ветер - указаны скорость ветра в м/с - средняя за 10 мин, порывы в срок и между сроками (в фигурных скобках) и направление, откуда дует ветер: С - северный, СВ - северо-восточный, В - восточный, ЮВ - юго-восточный, Ю - южный, ЮЗ - юго-западный, З - западный, СЗ - северо-западный.
Видимость - горизонтальная дальность видимости в метрах или километрах. При видимости от 1 до 10 км при отсутствии осадков обычно наблюдается дымка, при ухудшении видимости до 1 км и менее - туман. В сухую погоду видимость может ухудшаться дымом, пылью или мглою.
Явления - указаны атмосферные явления, наблюдавшиеся в срок или в последний час перед сроком; фигурными скобками обозначены явления, наблюдавшиеся между сроками (за 1-3 часа до срока); квадратными скобками обозначены град или гололедные отложения с указанием их диаметра в мм.
Облачность - указаны через наклонную черту общая и нижняя облачность в баллах и высота нижней границы облаков в метрах; квадратными скобками обозначены формы облаков: Ci - перистые, Cs - перисто-слоистые, Cc - перисто-кучевые, Ac - высококучевые, As - высокослоистые, Sc - слоисто-кучевые, Ns - слоисто-дождевые, Cu - кучевые, Cb - кучево-дождевые. Подробнее классификацию облаков см. в Атласе облаков (PDF).
T - Температура воздуха - температура, измеренная на высоте 2 м над землей.
Td - Температура точки росы - температура, при понижении до которой содержащийся в воздухе водяной пар достигнет насыщения.
f - Относительная влажность воздуха - влажноcть воздуха, измеренная на высоте 2 м над землей.
Te - Эффективная температура - температура, которую ощущает одетый по сезону человек в тени. Характеристика душности погоды. При расчете учитывается влияние влажности воздуха и скорости ветра на теплоощущения человека.
Tes - Эффективная температура на солнце - температура, которую ощущает человек, с поправкой на солнечный нагрев. Характеристика знойности погоды. Зависит от высоты солнца над горизонтом, облачности и скорости ветра. Ночью, в пасмурную погоду, а также при ветре 12 м/с и более поправка равна нулю.
P - Атмосферное давление - приведенное к уровню моря атмосферное давление.
Po - Атмосферное давление - измеренное на уровне метеостанции атмосферное давление.
Tmin - Минимальная температура - минимум температуры воздуха на высоте 2 м над землей.
Tmax - Максимальная температура - максимум температуры воздуха на высоте 2 м над землей.
R - Количество осадков - Количество выпавших осадков за период времени, мм. При наведении курсора мыши на число - период времени, за который выпало указанное количество осадков.
R24 - Количество осадков - Количество выпавших осадков за 24 часа, мм.
S - Снежный покров - Высота снежного покрова, см. При наведении курсора мыши на число - состояние снежного покрова и степень покрытия местности в баллах.